Theta_e
304 304 305 305 305 305 304 305 308 311 313 312 313 312 312 312 309 308 308 305 307 305 308 309 309 311 309 308 307 308 309 310 314 316 318 318 321 325 321 328 340 340 344 344 350
302 302 302 303 303 303 303 304 305 308 312 313 312 312 312 311 308 308 305 304 304 307 307 306 308 308 306 307 307 306 305 310 311 315 316 316 317 318 319 318 333 340 345 348 348
301 301 301 301 301 302 302 303 304 305 309 310 311 312 312 310 305 303 316 314 307 307 309 305 309 308 308 306 305 306 308 309 310 312 312 314 315 316 317 319 322 333 345 345 345
300 301 301 301 301 301 302 302 303 305 307 309 311 310 311 309 306 315 318 314 316 310 310 310 308 306 306 307 305 307 307 309 310 311 312 314 316 317 317 317 319 327 339 339 344
302 302 302 302 303 303 303 303 304 305 306 308 311 310 310 309 308 311 310 306 316 313 313 308 305 304 306 307 307 306 306 308 310 310 311 313 314 315 316 316 319 337 337 337 341
307 308 308 308 309 308 305 305 306 306 308 310 311 310 310 311 311 309 310 315 315 315 312 306 306 303 306 307 308 308 308 308 308 309 309 312 314 314 316 317 318 321 324 333 340
311 311 311 311 310 309 307 308 308 308 310 311 311 310 311 311 312 317 317 316 315 312 312 310 306 306 306 310 309 310 311 310 309 310 310 311 312 315 315 315 318 318 318 319 325
312 312 311 311 310 310 310 309 308 309 309 310 311 310 312 311 312 310 314 313 312 312 310 310 309 305 306 309 311 311 309 310 311 311 311 312 313 315 315 315 317 317 317 318 318
312 312 311 311 311 312 309 308 308 309 311 311 311 311 313 312 315 311 311 312 311 313 313 309 307 305 310 309 309 309 311 309 311 310 312 312 312 314 314 315 315 315 315 316 317
312 312 312 311 312 310 309 308 310 312 313 311 313 314 313 314 316 316 314 312 312 310 310 308 307 310 307 307 310 312 312 312 312 312 312 312 312 313 314 315 315 314 315 314 316
312 312 311 310 312 309 309 307 313 314 313 313 314 316 315 317 319 313 313 313 313 313 312 310 312 312 312 310 312 313 313 313 313 313 314 312 312 312 312 312 311 312 312 312 313
312 311 310 309 311 310 308 306 310 316 316 315 316 315 316 317 318 318 313 315 313 312 311 312 313 313 312 313 314 315 315 314 313 314 313 313 314 312 313 311 311 312 312 312 313
312 310 309 310 309 309 308 309 313 311 313 316 317 318 318 318 320 319 314 315 314 313 314 312 314 315 314 314 315 314 315 315 315 315 314 314 312 312 313 312 312 312 313 313 312
311 310 310 310 310 308 309 315 314 312 318 320 322 321 320 320 320 319 316 316 314 314 313 314 314 316 316 316 314 315 314 315 315 314 313 311 311 310 312 313 315 314 312 311 312
311 310 310 309 308 307 314 315 313 311 327 326 322 320 319 319 317 318 316 315 316 315 314 315 316 316 316 315 314 314 315 314 314 312 311 312 310 310 312 315 313 313 311 311 311
311 310 310 308 308 312 314 314 312 323 332 331 322 321 320 318 317 316 316 316 316 315 316 315 315 315 315 315 315 314 313 309 308 308 310 310 312 312 314 314 313 313 314 314 310
311 310 309 308 308 315 314 312 322 331 327 329 325 319 319 319 318 317 316 316 316 317 316 315 314 315 316 317 313 311 308 310 311 310 312 312 313 312 313 316 317 319 316 313 310
310 309 309 309 313 311 314 318 329 328 325 324 324 320 321 318 318 321 318 317 315 315 316 316 317 318 319 319 320 317 310 309 313 311 310 314 317 315 323 319 318 316 315 314 312
309 309 309 316 314 313 317 325 329 327 326 320 321 323 325 325 325 327 327 326 320 314 317 317 320 322 322 321 320 319 320 313 313 314 316 315 316 316 322 321 319 317 316 314 312
308 307 312 318 317 315 319 324 328 325 324 319 321 320 321 321 328 328 327 326 328 322 316 318 323 322 322 321 321 322 319 323 317 323 322 318 319 316 325 323 320 318 313 312 310
306 311 318 319 318 315 320 323 326 324 323 319 320 320 319 319 325 326 326 326 325 323 319 319 321 323 320 321 320 320 324 324 320 324 325 324 321 323 323 322 321 320 319 316 312
303 312 317 317 317 319 322 324 324 324 319 318 317 318 318 317 319 323 323 321 318 321 322 320 320 324 323 320 320 318 320 321 325 324 320 320 321 322 323 323 322 321 321 319 315
304 305 315 316 321 322 320 323 323 320 316 317 317 316 314 314 318 316 321 314 317 319 320 319 318 321 320 316 317 320 320 319 320 320 323 323 324 321 322 322 321 319 319 320 319
303 312 310 309 312 317 317 318 317 315 314 315 316 315 313 313 311 313 317 314 316 317 320 316 317 317 319 318 317 319 318 317 318 323 323 326 325 323 322 321 321 320 318 316 316
303 311 310 313 313 315 316 316 318 317 313 312 314 314 314 314 312 313 312 312 313 317 315 313 316 317 316 316 316 316 316 314 317 317 321 318 322 320 317 316 316 318 319 317 316
307 309 309 311 313 314 313 316 316 314 313 314 313 312 312 312 312 313 313 313 314 313 315 312 314 314 316 315 314 315 315 317 317 316 315 317 318 314 315 315 315 315 313 312 310
306 307 307 309 313 313 313 315 315 312 312 312 311 311 311 311 310 309 308 309 310 312 313 313 315 313 314 314 314 313 312 312 317 316 315 316 314 314 315 313 309 308 308 308 308
Wind_Speed
20 19 19 20 20 20 20 20 18 16 13 12 12 12 13 14 18 14 11 14 4 17 12 7 6 4 4 2 3 4 2 8 5 7 4 9 3 3 2 5 3 3 4 6 30
20 20 20 20 20 21 21 21 20 18 15 13 11 12 13 15 19 16 25 16 15 8 21 9 3 5 3 4 3 4 5 9 4 2 4 6 7 9 8 12 2 3 7 28 29
21 21 22 22 22 22 22 21 20 19 16 15 11 11 11 14 5 8 5 2 13 16 6 17 6 4 4 2 4 5 10 5 9 7 8 15 14 6 8 14 8 8 14 18 20
21 22 23 23 23 23 23 23 22 21 19 15 10 9 11 5 6 2 2 5 6 21 12 10 5 5 4 7 6 5 5 8 5 7 7 18 5 16 14 15 12 12 15 10 13
22 23 23 23 23 23 24 24 24 24 21 15 10 6 4 1 11 15 11 15 10 23 17 8 7 7 7 5 3 4 6 8 10 14 15 11 14 15 17 16 11 11 16 18 12
21 21 23 24 24 26 25 26 28 27 22 14 9 2 0 5 7 9 7 6 16 24 14 9 9 8 5 6 7 7 15 17 10 11 8 8 15 4 17 16 12 13 6 12 18
21 21 23 24 25 27 28 30 29 25 17 14 8 5 5 19 4 1 6 7 20 24 9 18 7 7 5 6 8 8 6 9 9 9 12 5 11 9 19 8 10 6 10 10 11
24 24 24 24 26 25 27 29 28 22 17 10 8 6 8 10 7 16 16 15 11 21 7 24 16 1 4 4 6 4 3 2 13 9 10 11 17 15 16 7 11 8 6 9 10
26 26 28 28 27 26 28 27 26 18 7 9 8 5 10 6 8 21 22 15 13 18 18 2 11 6 2 2 3 4 4 6 9 10 8 9 11 19 13 9 10 9 9 9 8
27 27 28 29 27 26 25 24 9 8 11 10 2 2 8 5 6 11 22 21 5 7 5 7 5 4 1 4 5 5 3 3 4 5 3 7 5 6 8 9 12 10 9 9 9
30 29 29 29 29 27 19 6 2 2 8 10 9 5 3 7 5 10 13 11 4 4 6 6 4 8 8 7 2 3 4 5 6 10 5 7 6 10 10 5 9 11 8 9 11
32 32 32 32 33 27 15 4 7 3 6 23 16 14 14 10 5 4 15 6 6 7 4 2 6 11 7 5 5 6 4 6 8 6 3 7 7 8 6 7 11 13 10 9 5
32 32 33 37 37 7 9 14 7 1 3 5 10 9 7 9 7 6 9 7 4 6 5 7 9 3 4 8 6 6 4 6 7 7 3 2 6 6 5 4 4 6 6 6 10
33 35 33 34 7 4 7 6 10 10 1 3 5 6 7 5 4 8 11 7 4 9 6 6 9 10 5 7 7 6 8 10 7 3 3 3 4 5 6 7 2 2 3 9 9
37 36 34 20 16 5 4 11 4 4 1 5 3 8 6 8 2 6 9 4 9 6 6 7 2 2 3 5 5 10 6 10 6 4 5 2 4 7 6 7 7 5 7 9 10
38 41 33 18 9 21 15 13 5 3 3 6 2 5 4 1 1 4 4 4 4 5 3 7 3 3 5 5 4 6 2 7 5 3 1 5 5 5 3 4 7 7 9 9 10
42 44 36 16 7 4 13 2 2 2 0 5 1 2 4 4 1 1 5 4 5 3 7 5 5 4 5 4 4 5 6 2 3 2 5 3 3 7 7 5 3 4 7 9 7
45 45 17 18 4 10 5 3 4 2 4 4 6 4 4 3 2 1 3 3 4 4 2 4 5 6 2 3 3 1 5 5 4 3 4 4 3 4 4 3 3 4 7 11 10
42 22 10 4 15 7 3 1 3 3 10 3 1 4 3 3 3 3 3 3 3 4 6 4 4 1 4 2 4 3 2 4 5 3 2 3 5 5 5 7 6 7 15 14 11
32 11 8 4 15 7 3 4 3 1 6 2 2 3 3 5 2 3 5 6 7 4 2 4 2 3 2 1 3 2 6 3 3 2 2 4 3 4 2 3 3 5 6 8 9
9 4 3 12 10 4 2 5 3 3 6 3 3 4 4 3 3 2 3 3 8 6 6 3 3 4 2 3 2 5 3 5 3 3 4 3 5 3 4 3 5 3 3 5 6
5 3 7 7 2 1 2 3 2 4 1 2 4 5 2 4 3 2 4 4 9 3 2 2 3 2 4 2 5 1 3 3 4 4 3 3 5 1 3 3 2 5 3 2 5
4 3 4 3 3 2 3 4 2 2 4 3 3 4 4 3 2 4 4 5 8 5 3 3 1 1 6 4 5 5 3 4 4 3 4 4 5 2 2 4 5 5 6 5 2
2 3 4 4 1 1 1 3 3 6 4 6 3 4 4 3 4 1 2 5 6 3 9 2 2 4 5 1 1 2 1 2 4 3 3 8 6 7 6 7 7 7 8 9 7
1 3 1 3 3 3 2 3 2 3 2 4 4 3 3 1 3 2 3 5 4 7 5 4 2 1 2 4 3 4 7 7 8 8 9 7 14 13 9 9 9 7 7 5 7
1 1 4 3 4 4 5 3 3 3 2 2 5 5 3 4 3 4 2 1 3 4 3 2 1 3 3 4 7 8 8 12 15 15 15 17 19 8 14 10 5 3 4 6 5
3 2 2 4 5 2 3 4 2 7 6 5 7 4 1 4 4 5 6 5 4 5 2 1 3 2 3 1 5 7 8 8 5 9 7 12 9 4 3 4 6 5 6 7 5
Wind_Direction
343 343 342 343 344 345 347 347 344 345 325 309 304 303 307 307 303 284 236 234 166 203 190 174 69 123 133 234 214 125 216 230 216 186 224 279 312 249 298 300 331 116 131 140 139
339 338 336 335 336 338 338 340 339 337 336 316 307 306 309 314 306 248 268 252 229 204 200 195 118 115 132 206 226 168 201 222 186 224 279 293 303 321 340 328 108 26 88 134 143
334 332 332 331 331 331 332 332 333 334 333 329 309 306 312 322 291 249 39 174 231 198 177 199 142 139 173 147 215 211 235 205 271 269 278 282 282 303 295 293 247 200 144 141 140
331 330 329 328 328 328 327 328 327 326 326 324 314 307 317 331 302 280 97 9 284 183 158 145 129 134 179 202 227 255 236 225 250 249 255 264 282 269 262 254 276 231 151 141 153
334 332 330 328 327 326 323 322 322 321 320 321 316 310 322 341 248 261 271 289 190 175 177 161 148 158 177 202 201 243 269 263 232 240 241 255 257 260 284 278 286 149 156 150 170
336 334 332 329 329 327 323 321 318 315 313 310 298 238 284 269 262 310 259 201 190 174 179 168 188 181 179 220 185 219 227 249 260 255 260 253 248 151 267 277 252 130 157 184 167
334 333 331 328 328 325 321 319 315 309 302 296 259 205 239 243 233 352 147 204 189 180 169 206 199 161 159 261 230 237 245 244 237 238 245 207 282 212 259 237 236 219 157 187 179
333 330 329 328 325 321 320 316 309 302 293 277 201 199 250 263 276 246 216 235 210 204 184 208 206 173 214 282 331 248 109 244 250 214 247 147 259 256 233 174 226 206 232 183 180
332 331 330 328 324 321 322 314 306 300 269 177 166 206 263 293 242 240 229 216 213 206 215 340 158 211 251 137 357 354 249 218 297 196 213 162 236 246 230 201 229 208 205 218 233
330 328 328 324 320 323 324 319 320 101 126 156 238 248 253 244 196 202 218 209 177 131 155 197 211 200 257 140 205 237 283 304 276 336 195 229 239 266 243 201 224 216 234 190 218
330 329 329 326 319 320 325 340 127 153 222 200 192 243 279 340 247 190 182 165 191 151 179 190 152 221 236 222 171 220 237 247 273 271 258 236 237 241 247 208 255 255 238 234 200
329 330 331 328 322 314 293 231 232 125 279 224 241 252 276 313 310 291 176 156 140 206 155 350 232 229 230 232 216 208 241 259 274 273 162 301 299 274 260 229 204 219 234 241 259
328 331 332 328 326 312 209 240 283 224 266 260 195 224 225 172 213 254 150 171 166 193 178 190 238 20 191 265 248 247 205 256 213 321 268 301 309 331 312 253 221 212 199 225 222
328 332 333 330 331 324 247 316 319 214 310 228 202 250 170 194 250 226 189 155 209 198 176 220 269 252 241 245 188 271 229 240 262 128 253 62 274 304 332 327 20 269 288 266 232
326 330 328 321 287 261 215 333 124 131 337 2 168 155 155 161 162 212 171 136 190 205 129 231 264 171 280 228 160 242 281 201 236 187 117 314 83 273 335 317 300 297 237 260 244
326 326 323 321 231 254 292 321 179 31 259 322 117 156 131 204 285 330 131 109 171 188 234 242 250 229 236 265 227 265 115 47 47 92 62 234 140 284 242 259 314 317 321 292 241
327 323 312 257 227 157 329 143 12 203 227 295 240 140 151 179 268 247 146 145 188 157 248 296 260 218 224 276 32 73 51 309 326 345 215 130 93 233 292 304 277 283 330 338 320
328 324 310 246 233 269 299 58 231 244 249 183 304 356 132 133 238 284 110 174 247 182 153 201 316 182 164 191 199 153 146 149 221 222 272 321 235 246 294 85 32 74 71 42 25
331 326 291 274 213 199 87 155 225 297 334 341 326 62 337 59 92 74 14 49 345 194 176 196 254 357 67 299 162 185 98 185 104 16 73 258 289 315 3 44 32 65 81 73 47
330 318 277 193 147 132 86 243 233 294 315 295 83 49 36 358 92 74 16 25 340 27 164 204 288 4 346 0 13 136 165 87 10 170 255 292 264 231 250 135 53 42 62 95 106
328 335 347 173 146 66 201 239 288 287 331 9 77 72 65 8 70 134 144 21 298 292 68 12 104 276 27 32 59 358 357 61 95 155 160 267 261 276 222 192 141 97 38 92 96
358 320 100 176 68 136 217 224 270 260 52 74 74 86 102 53 36 95 110 15 331 322 47 13 111 264 258 264 212 94 97 99 146 215 231 196 256 320 55 309 347 289 197 101 92
325 262 320 186 210 225 277 276 225 195 27 72 75 44 53 54 123 56 93 336 4 45 50 343 28 42 335 4 23 61 48 89 68 66 226 184 257 206 214 295 305 302 268 186 221
342 335 318 31 10 159 332 257 138 25 57 67 94 65 70 74 24 40 95 3 1 55 38 80 84 169 194 195 166 293 252 203 162 182 230 240 297 283 269 271 263 239 268 322 325
191 259 181 302 331 334 264 271 166 133 71 63 52 80 150 143 22 96 50 4 2 358 33 75 165 332 285 302 293 257 288 288 210 221 224 223 229 243 258 262 255 251 264 266 286
265 4 347 290 295 319 14 232 165 101 104 95 130 161 127 158 174 203 118 230 239 4 59 352 243 20 288 273 277 284 277 253 256 255 249 245 254 239 250 269 262 266 137 100 70
315 323 109 290 332 12 330 289 177 116 18 120 146 133 174 190 193 216 193 195 196 156 114 137 115 35 267 59 330 295 247 250 261 231 219 233 243 218 238 101 114 98 107 108 94